Wind_Speed
35 35 36 34 31 31 31 31 32 33 34 36 37 37 38 39 39 39 40 38 37 37 37 37 36 36 38 40 41 43 45 47 49 50 52 53 55 57 59 61 63 64 65
37 40 38 40 37 35 33 33 35 35 37 39 40 41 42 43 43 43 42 41 39 38 38 39 39 39 42 43 45 47 48 50 53 54 56 57 59 61 63 64 66 67 68
40 44 44 43 41 38 35 35 36 37 39 41 43 44 44 44 45 45 45 43 40 38 40 39 40 42 44 46 47 49 50 53 55 57 59 59 59 60 63 66 68 68 68
38 42 43 42 40 38 37 36 37 38 40 42 44 46 47 47 46 47 46 44 42 42 42 41 43 45 46 46 48 50 52 54 56 57 58 60 61 62 62 64 66 67 68
36 38 39 38 38 38 37 37 37 39 41 43 45 47 48 48 47 47 46 45 43 42 43 43 44 46 47 49 51 53 55 56 56 58 59 61 62 62 62 63 65 67 68
35 35 35 34 35 36 36 36 38 40 41 43 44 46 47 47 47 47 46 46 45 44 44 45 46 47 49 51 54 56 56 56 57 59 59 61 62 64 64 65 66 68 68
35 37 36 34 34 34 35 36 37 39 41 42 44 45 46 46 47 47 46 46 46 45 46 48 49 50 52 54 56 57 56 57 58 59 60 62 63 64 66 67 68 68 67
37 37 36 34 34 33 34 36 37 39 41 42 43 44 45 46 46 46 47 47 47 47 48 50 51 53 55 58 58 58 58 59 59 60 61 62 63 65 67 68 67 67 65
30 31 32 33 32 33 34 36 37 38 40 41 43 44 45 45 45 46 47 47 48 49 51 53 55 57 59 59 59 59 60 60 61 61 62 63 65 66 67 68 68 67 66
27 30 31 31 31 33 34 35 36 37 39 41 42 44 45 45 46 46 46 48 50 52 55 56 57 59 60 61 61 61 62 62 62 62 63 65 66 67 67 68 68 68 69
33 34 32 32 32 33 34 35 37 38 40 42 43 45 46 46 47 48 49 51 53 55 56 58 60 61 61 63 64 64 63 62 62 63 64 65 66 67 67 68 68 68 68
40 37 35 34 33 34 36 37 39 40 41 42 44 46 47 48 49 51 53 55 56 57 58 59 60 61 62 64 64 63 61 61 61 63 64 65 66 67 67 67 66 65 63
37 34 34 34 36 37 39 40 41 42 43 45 47 49 50 51 53 54 56 57 58 59 60 61 61 62 64 64 60 58 58 59 61 63 64 65 66 66 65 64 61 59 56
32 33 36 39 40 41 42 43 45 46 48 49 50 52 52 54 55 57 58 60 61 62 63 63 63 63 61 57 56 56 57 59 61 63 64 64 64 63 61 57 54 51 48
42 43 44 45 46 47 47 47 49 50 51 52 53 53 54 55 56 57 59 61 63 65 64 62 60 57 55 54 55 56 58 59 60 61 61 61 59 56 52 48 45 43 40
52 52 51 51 50 50 50 50 51 52 52 53 53 53 54 55 57 59 60 62 64 63 60 57 54 53 53 54 55 56 57 58 58 58 56 53 50 47 44 42 39 36 33
54 54 53 52 51 51 50 50 50 50 51 51 52 52 53 55 57 58 61 62 62 60 57 53 52 52 52 54 55 55 55 55 54 52 48 44 42 39 37 35 31 28 25
52 52 52 51 50 49 49 48 48 48 49 50 51 51 53 55 56 58 60 59 58 54 51 50 50 51 52 52 53 52 51 49 46 43 39 37 35 33 30 27 23 19 16
49 49 49 48 47 46 46 45 45 46 47 48 49 51 53 54 55 57 56 54 52 50 48 48 49 50 50 50 49 47 43 40 37 36 34 31 28 25 22 18 14 12 10
45 45 45 45 44 43 43 43 43 44 45 47 48 50 53 54 54 53 50 47 46 46 46 47 48 48 47 45 42 39 35 33 31 30 28 25 21 18 14 11 9 7 7
42 41 41 40 40 39 39 39 40 42 44 46 48 49 49 49 47 45 44 45 45 46 46 46 46 44 40 37 33 30 28 26 24 23 21 18 14 11 9 7 7 7 7
37 36 36 35 34 33 34 35 38 40 42 43 43 43 42 42 41 41 42 44 45 45 43 41 38 35 31 28 26 25 23 20 18 16 13 11 8 7 6 7 7 7 7
32 31 30 29 29 30 31 33 35 37 37 37 36 36 37 38 40 41 42 42 41 39 36 32 29 26 23 22 22 21 18 16 12 9 8 6 5 6 7 7 8 8 8
26 25 25 25 26 27 29 31 32 32 31 32 34 35 36 37 38 39 38 36 34 30 27 24 21 20 18 18 18 18 15 11 8 5 4 4 5 7 8 8 8 8 8
20 21 22 23 24 25 25 25 26 27 30 32 34 35 36 36 35 34 32 29 26 23 20 18 17 16 16 16 15 14 11 8 5 3 4 5 6 8 8 9 8 8 9
15 16 17 18 18 20 21 23 25 28 30 32 33 34 34 32 30 27 24 22 19 17 16 16 15 14 14 13 12 9 7 4 3 4 6 7 8 8 9 9 9 9 9
Wind_Direction
275 274 276 284 288 292 291 289 289 289 289 289 290 291 291 292 293 293 291 289 289 290 288 285 285 288 290 291 292 292 291 291 290 290 289 288 288 287 286 286 285 286 287
267 271 275 281 286 287 287 287 286 285 284 285 286 287 288 289 290 291 292 289 290 290 290 286 285 287 289 291 292 291 291 291 290 290 288 288 287 287 287 286 286 286 286
266 269 275 279 282 284 285 283 282 281 281 282 283 284 284 286 288 289 291 291 288 290 291 290 288 289 291 293 292 291 290 290 290 290 289 288 287 287 287 288 288 288 289
270 271 274 278 281 282 281 280 279 279 279 280 281 283 283 285 288 289 289 289 290 290 291 291 290 292 294 296 295 294 293 292 291 291 290 289 288 287 287 288 290 291 291
273 272 274 275 275 277 278 277 277 278 279 279 279 281 284 286 288 289 288 289 291 292 292 292 292 293 294 295 295 296 295 294 292 292 292 291 290 289 289 289 290 291 291
270 274 276 275 272 273 274 275 276 278 279 280 281 283 285 287 288 288 288 289 290 291 291 292 293 294 294 295 295 296 295 294 294 293 292 292 292 292 292 291 291 291 291
267 273 276 274 272 271 273 274 276 277 279 281 282 283 285 286 287 286 287 288 289 291 292 292 293 294 296 297 297 297 296 295 295 294 294 293 293 293 294 293 293 292 292
271 270 270 270 268 269 271 274 276 277 279 281 281 283 284 285 286 286 287 288 289 292 294 295 295 297 298 298 298 297 296 296 295 295 295 295 295 295 295 294 294 293 292
271 267 267 266 267 270 272 273 275 277 278 279 280 283 285 285 286 287 288 290 292 294 295 296 297 297 298 298 298 297 297 297 297 297 297 296 296 296 295 295 295 294 292
269 270 270 268 269 271 272 273 275 276 277 279 280 283 284 287 288 290 291 292 294 295 296 296 296 297 298 298 297 297 298 297 297 297 297 297 297 297 296 296 295 295 294
274 273 274 275 273 273 273 274 275 276 278 280 282 285 287 288 290 291 292 292 294 295 296 295 295 296 298 298 298 297 297 297 297 298 298 298 297 297 297 296 296 295 294
272 273 278 278 277 276 276 276 278 280 282 284 285 287 289 291 292 292 293 293 294 295 294 294 295 297 299 299 299 298 297 298 299 298 298 298 298 298 298 297 297 296 295
266 272 278 281 281 279 279 279 280 282 284 286 288 289 290 291 292 293 294 294 294 294 293 294 295 297 298 299 299 299 300 300 299 299 299 300 300 299 299 298 297 296 296
272 278 281 282 282 281 280 280 282 284 286 287 288 289 290 291 292 293 293 293 293 292 292 293 295 296 298 300 300 301 300 300 300 300 301 301 301 300 300 299 299 298 297
282 284 284 283 282 281 281 282 283 284 286 287 288 289 290 291 292 293 293 293 292 292 292 294 297 299 301 302 301 301 301 301 302 302 303 303 302 302 302 301 301 300 299
281 282 283 283 283 283 283 283 284 285 285 286 288 289 290 291 292 292 292 292 293 294 297 299 301 302 302 301 301 301 302 303 304 305 305 305 304 304 304 304 303 302 300
279 281 283 284 284 285 285 284 284 284 285 286 287 288 289 290 290 291 292 293 295 298 301 302 302 302 302 302 302 304 305 306 307 307 307 307 307 307 307 307 305 303 302
280 282 283 285 285 285 285 284 284 284 285 286 286 287 288 289 290 292 293 295 298 300 302 302 302 301 302 303 304 306 308 308 308 309 310 311 311 311 312 311 310 308 307
280 282 283 285 285 285 285 284 284 284 285 286 287 288 288 289 291 292 294 297 299 301 302 302 301 302 304 305 307 309 309 309 310 311 313 315 316 317 318 319 320 322 323
282 283 284 285 285 285 284 284 284 285 285 286 286 287 289 290 292 294 297 300 301 302 302 302 303 305 306 308 309 309 309 311 312 313 316 319 322 325 330 336 343 351 358
283 284 284 285 285 285 285 285 285 284 285 286 288 289 290 293 295 298 301 302 302 303 304 305 306 307 307 308 308 309 311 312 313 315 318 323 329 336 349 4 16 26 33
283 284 285 286 287 288 287 287 286 286 287 288 290 293 296 299 301 302 302 303 304 305 307 307 308 307 307 308 310 313 316 317 317 319 325 332 344 3 23 34 40 42 39
283 284 286 288 289 288 287 286 287 288 291 294 297 301 302 303 303 304 305 307 308 309 310 310 309 309 310 312 316 319 322 325 327 329 337 353 19 35 42 49 48 46 41
284 286 288 289 290 289 288 288 291 295 300 302 303 304 304 305 307 309 310 312 313 314 314 313 312 313 314 317 321 324 329 334 342 352 15 42 52 53 54 53 51 48 42
286 288 290 291 290 291 295 299 303 306 306 306 306 307 309 311 313 314 316 317 318 319 318 318 318 319 321 323 325 328 333 342 358 35 60 67 65 61 57 53 52 49 47
288 289 292 295 298 303 306 309 309 309 309 310 311 313 315 317 318 319 321 322 323 324 325 325 326 326 327 328 330 336 344 357 47 82 87 80 74 66 60 56 54 54 56
Height
5857 5853 5851 5850 5848 5848 5849 5849 5847 5847 5845 5844 5843 5841 5839 5838 5837 5835 5832 5830 5828 5826 5823 5821 5820 5817 5814 5811 5809 5806 5802 5799 5796 5793 5790 5787 5783 5779 5775 5771 5766 5762 5758
5851 5847 5844 5845 5845 5844 5843 5841 5841 5840 5839 5837 5836 5834 5833 5831 5829 5827 5825 5823 5820 5818 5815 5813 5811 5808 5805 5802 5799 5795 5792 5788 5783 5780 5776 5774 5771 5765 5760 5755 5751 5747 5743
5844 5840 5839 5839 5838 5837 5836 5835 5834 5833 5831 5830 5828 5826 5824 5823 5822 5819 5817 5815 5812 5810 5807 5804 5802 5798 5795 5792 5788 5784 5780 5776 5771 5766 5762 5758 5754 5751 5746 5739 5734 5730 5726
5837 5833 5832 5831 5830 5829 5829 5828 5827 5825 5824 5822 5820 5818 5816 5814 5813 5810 5808 5806 5803 5801 5798 5795 5792 5788 5784 5781 5776 5772 5767 5763 5758 5752 5747 5742 5738 5735 5732 5726 5719 5714 5709
5828 5825 5824 5824 5822 5822 5821 5820 5818 5817 5815 5814 5812 5810 5807 5805 5803 5801 5798 5796 5794 5791 5788 5785 5782 5777 5773 5769 5764 5759 5754 5749 5743 5738 5732 5727 5722 5717 5715 5711 5705 5699 5693
5818 5817 5817 5816 5815 5813 5812 5811 5810 5808 5807 5805 5804 5801 5798 5796 5793 5791 5788 5786 5784 5781 5778 5775 5771 5766 5762 5757 5752 5747 5741 5735 5730 5724 5718 5712 5707 5702 5697 5693 5688 5683 5677
5811 5809 5809 5808 5807 5805 5804 5803 5801 5800 5798 5797 5795 5792 5790 5787 5784 5781 5778 5775 5773 5771 5768 5763 5759 5754 5749 5744 5739 5733 5727 5721 5716 5709 5703 5697 5691 5685 5680 5675 5670 5665 5660
5804 5801 5800 5799 5797 5796 5795 5794 5792 5791 5789 5787 5785 5783 5780 5778 5775 5771 5768 5765 5762 5759 5756 5751 5747 5741 5736 5730 5725 5719 5713 5707 5701 5695 5689 5683 5676 5669 5663 5656 5651 5647 5643
5794 5792 5792 5790 5789 5788 5787 5786 5784 5783 5781 5779 5776 5774 5771 5768 5765 5762 5758 5755 5751 5747 5743 5738 5733 5728 5723 5717 5711 5705 5699 5692 5686 5680 5673 5667 5660 5653 5646 5639 5632 5627 5623
5785 5784 5783 5781 5781 5780 5779 5778 5776 5774 5772 5770 5767 5765 5762 5759 5755 5751 5748 5744 5739 5735 5730 5725 5720 5714 5709 5703 5696 5690 5684 5678 5671 5665 5658 5651 5643 5636 5629 5621 5614 5607 5602
5777 5775 5772 5773 5773 5772 5771 5769 5768 5765 5763 5761 5758 5755 5752 5748 5744 5741 5737 5732 5727 5722 5717 5711 5706 5700 5694 5688 5682 5676 5669 5663 5656 5649 5642 5635 5627 5620 5612 5604 5597 5589 5582
5769 5767 5766 5765 5765 5764 5762 5761 5759 5757 5754 5752 5748 5745 5741 5737 5733 5729 5724 5720 5714 5709 5703 5697 5691 5686 5680 5674 5668 5661 5654 5648 5641 5634 5627 5619 5611 5604 5595 5587 5579 5571 5564
5758 5759 5758 5757 5756 5755 5754 5752 5749 5747 5744 5741 5738 5734 5730 5726 5721 5716 5711 5706 5701 5695 5689 5683 5677 5671 5665 5660 5653 5646 5640 5634 5627 5619 5611 5603 5595 5587 5578 5570 5562 5555 5549
5748 5751 5751 5749 5748 5746 5744 5742 5739 5736 5733 5729 5726 5722 5718 5713 5709 5703 5698 5692 5687 5681 5675 5668 5662 5657 5651 5645 5639 5632 5626 5620 5612 5604 5596 5588 5579 5571 5562 5555 5547 5541 5535
5742 5742 5741 5739 5737 5735 5733 5731 5727 5724 5720 5717 5713 5709 5705 5700 5695 5690 5684 5679 5673 5667 5661 5654 5648 5642 5638 5632 5625 5619 5613 5606 5598 5590 5581 5572 5564 5555 5548 5541 5535 5529 5524
5734 5732 5730 5728 5725 5723 5721 5718 5715 5711 5707 5704 5700 5696 5692 5687 5682 5677 5671 5665 5659 5653 5647 5641 5635 5630 5625 5619 5612 5606 5599 5591 5584 5576 5567 5559 5551 5543 5536 5530 5524 5519 5514
5723 5720 5718 5716 5713 5711 5708 5705 5702 5698 5694 5691 5687 5683 5679 5674 5669 5663 5658 5652 5646 5640 5634 5629 5623 5618 5612 5606 5600 5592 5585 5578 5570 5562 5555 5547 5540 5533 5527 5521 5516 5511 5508
5712 5709 5706 5704 5701 5698 5695 5692 5689 5686 5682 5679 5674 5670 5666 5661 5656 5651 5645 5639 5633 5628 5623 5617 5611 5606 5601 5594 5587 5580 5572 5565 5557 5551 5545 5539 5532 5525 5520 5515 5510 5507 5504
5701 5698 5695 5692 5688 5686 5683 5680 5677 5674 5671 5667 5663 5659 5654 5649 5644 5638 5633 5627 5622 5616 5611 5606 5600 5594 5588 5582 5575 5568 5561 5554 5548 5542 5537 5531 5526 5520 5515 5511 5507 5505 5503
5689 5686 5683 5680 5677 5674 5672 5669 5666 5663 5659 5655 5651 5647 5642 5637 5632 5627 5621 5616 5611 5605 5600 5594 5588 5582 5575 5569 5563 5558 5553 5547 5541 5536 5531 5526 5521 5517 5513 5510 5507 5505 5503
5678 5675 5672 5670 5667 5664 5662 5659 5656 5653 5649 5645 5640 5636 5631 5626 5621 5615 5610 5605 5600 5594 5589 5583 5576 5570 5564 5559 5554 5550 5546 5541 5536 5531 5527 5523 5519 5516 5513 5510 5508 5506 5504
5668 5666 5663 5661 5658 5656 5653 5650 5647 5643 5639 5635 5630 5625 5620 5615 5611 5606 5600 5595 5589 5583 5577 5571 5565 5560 5555 5551 5547 5543 5539 5535 5531 5528 5525 5522 5519 5517 5514 5512 5510 5508 5506
5660 5658 5656 5653 5651 5649 5646 5643 5639 5635 5630 5626 5621 5616 5612 5606 5601 5596 5590 5584 5578 5572 5567 5562 5557 5553 5549 5546 5542 5538 5535 5531 5528 5526 5524 5522 5520 5518 5516 5514 5512 5510 5509
5653 5651 5649 5647 5645 5642 5639 5635 5631 5627 5622 5618 5614 5609 5604 5598 5592 5586 5580 5574 5568 5563 5559 5555 5551 5548 5545 5541 5538 5535 5531 5529 5527 5525 5524 5523 5521 5520 5518 5516 5515 5513 5512
5648 5646 5644 5642 5640 5637 5633 5629 5625 5621 5616 5612 5607 5601 5595 5589 5583 5576 5571 5566 5561 5557 5553 5550 5547 5544 5541 5538 5535 5532 5530 5528 5526 5526 5525 5524 5523 5522 5520 5519 5517 5516 5514
5644 5642 5640 5638 5635 5632 5628 5624 5620 5616 5610 5605 5599 5592 5586 5581 5575 5570 5565 5559 5556 5552 5549 5546 5544 5541 5538 5536 5533 5531 5529 5528 5527 5527 5527 5526 5525 5524 5523 5521 5520 5519 5517